[[{"header":{"parameterUnit":"m.s-1","parameterCategory":1,"la1":30.2991,"la2":30.254,"lo1":-89.0895,"lo2":-89.0444,"dy":0.0017,"dx":0.0017,"nx":28,"ny":28,"refTime":"2026-02-09T03:00:00:Z","depth":0,"parameterNumber":2,"parameterNumberName":"U-component_of_WINDS"},"data":[0,0,0,0,0,0,0,0,0,0,0,0,0,0,0,0,0,0,0,0,0,0,0,0,0,0,0,0,0,0,0,0,0,0,0,0,0,0,0,0,0,0,0,0,0,0,0,0,0,0,0,0,0,0,0,0,0,0,-0.6409,-0.6409,0,-0.6393,-0.6393,-0.6393,-0.6363,-0.6362,-0.6362,-0.6361,-0.6345,-0.6345,-0.6345,0,0,0,0,0,0,0,0,0,0,0,0,0,-0.6413,-0.6413,-0.6409,-0.6409,-0.6409,-0.6393,-0.6393,-0.6393,-0.6363,-0.6362,-0.6362,-0.6361,-0.6345,-0.6345,-0.6345,0,0,0,0,0,0,0,0,0,0,0,0,0,-0.6406,-0.6413,-0.6409,-0.6392,-0.639,-0.6393,-0.6393,-0.6393,-0.6363,-0.6362,-0.6361,-0.6361,-0.6345,-0.6345,-0.6345,-0.6364,0,0,-0.6346,-0.6346,0,0,0,0,0,0,0,0,-0.6406,-0.6406,-0.6395,-0.6393,-0.6391,-0.6379,-0.6389,-0.6383,-0.6363,-0.6373,-0.6361,-0.636,-0.6357,-0.6356,-0.6355,-0.6363,-0.6363,-0.6346,-0.6346,-0.6346,-0.6346,0,0,0,0,0,0,0,-0.6407,-0.6406,-0.6403,-0.6395,-0.6392,-0.6385,-0.6383,-0.6387,-0.637,-0.6373,-0.637,-0.6369,-0.6356,-0.6355,-0.6355,-0.6362,-0.6346,-0.6346,-0.6346,-0.6346,-0.6383,-0.6384,0,0,0,0,0,0,-0.641,-0.6407,-0.6403,-0.6402,-0.6397,-0.6386,-0.6383,-0.6384,-0.637,-0.6367,-0.637,-0.6368,-0.6355,-0.6355,-0.6354,-0.6373,-0.6346,-0.6346,-0.6346,-0.6383,-0.6384,-0.6385,0,0,0,0,0,0,-0.641,-0.641,-0.6404,-0.6404,-0.6403,-0.6386,-0.6387,-0.6384,-0.6383,-0.6368,-0.6365,-0.6372,-0.6355,-0.6354,-0.6361,-0.6372,-0.6346,-0.6347,-0.6382,-0.6383,-0.6384,-0.6414,0,0,0,0,0,0,-0.641,-0.641,-0.6417,-0.6404,-0.6403,-0.6412,-0.6388,-0.6384,-0.6384,-0.6381,-0.6369,-0.6367,-0.6354,-0.6361,-0.6362,-0.6372,-0.6347,-0.638,-0.6382,-0.6384,-0.6411,-0.6416,-0.6419,0,0,0,0,0,-0.641,-0.6426,-0.6418,-0.6417,-0.6411,-0.6413,-0.6412,-0.6397,-0.6385,-0.6391,-0.6382,-0.6367,-0.6372,-0.6362,-0.6362,-0.6373,-0.638,-0.6382,-0.6384,-0.641,-0.6415,-0.6419,0,0,0,0,0,0,-0.6441,-0.6424,-0.6414,-0.6427,-0.6421,-0.6408,-0.6415,-0.6403,-0.6401,-0.6398,-0.638,-0.6377,-0.6387,-0.6381,-0.6371,-0.639,-0.6373,-0.6375,-0.6393,-0.6398,-0.6402,-0.6402,-0.6347,0,0,0,0,0,-0.6449,-0.6451,-0.6437,-0.6449,-0.6447,-0.6432,-0.6432,-0.6421,-0.6414,-0.6412,-0.6403,-0.6397,-0.6397,-0.6398,-0.6397,-0.6411,-0.6407,-0.6419,-0.6423,-0.6426,-0.6427,-0.6433,-0.6437,-0.6391,-0.6391,-0.6391,0,0,-0.6466,-0.6457,-0.646,-0.6455,-0.6449,-0.6452,-0.643,-0.6434,-0.6436,-0.6413,-0.6419,-0.6412,-0.6404,-0.6415,-0.6419,-0.641,-0.6439,-0.6428,-0.6431,-0.6431,-0.6435,-0.644,-0.6443,-0.6392,-0.6392,-0.6392,0,0,-0.6497,-0.6491,-0.65,-0.6495,-0.6487,-0.6476,-0.6479,-0.6467,-0.6461,-0.6467,-0.645,-0.6452,-0.6453,-0.6447,-0.6445,-0.6474,-0.646,-0.6475,-0.6494,-0.65,-0.6503,-0.6506,-0.6515,-0.6519,-0.6476,-0.6477,-0.6477,0,-0.6518,-0.6522,-0.6506,-0.6511,-0.6509,-0.6488,-0.6496,-0.6492,-0.6485,-0.6483,-0.6474,-0.6474,-0.6468,-0.6476,-0.6483,-0.6482,-0.6483,-0.6475,-0.6504,-0.6507,-0.651,-0.6518,-0.6521,-0.6478,-0.6478,-0.6478,-0.6478,0,-0.6548,-0.655,-0.6558,-0.6551,-0.655,-0.6556,-0.6541,-0.6543,-0.6532,-0.6523,-0.6528,-0.652,-0.6517,-0.6518,-0.6508,-0.6525,-0.6519,-0.6508,-0.649,-0.6516,-0.6523,-0.6526,-0.6481,-0.648,-0.6479,-0.6479,0,0,-0.6596,-0.658,-0.6583,-0.6579,-0.6568,-0.657,-0.6576,-0.6572,-0.6572,-0.6568,-0.6571,-0.6573,-0.6561,-0.6558,-0.6548,-0.6553,-0.6574,-0.654,-0.6539,-0.6545,-0.659,-0.6598,-0.6602,-0.6566,-0.6566,-0.6567,-0.659,0,-0.6623,-0.6631,-0.6618,-0.6629,-0.663,-0.6611,-0.6616,-0.661,-0.6601,-0.6601,-0.6592,-0.6592,-0.6578,-0.6576,-0.6581,-0.6571,-0.6583,-0.6569,-0.6567,-0.6568,-0.6568,-0.6606,-0.6614,-0.6637,-0.6593,-0.6594,-0.6594,0,-0.6656,-0.6653,-0.6664,-0.6652,-0.6652,-0.6656,-0.6651,-0.6652,-0.6645,-0.6638,-0.6635,-0.6622,-0.6626,-0.6611,-0.6615,-0.6606,-0.6605,-0.66,-0.6601,-0.6598,-0.6581,-0.6603,-0.6644,-0.6647,-0.6599,-0.6598,-0.6598,0,-0.6688,-0.6686,-0.6692,-0.669,-0.6676,-0.668,-0.6674,-0.6666,-0.6665,-0.6661,-0.6659,-0.6657,-0.6654,-0.6652,-0.6638,-0.6629,-0.6644,-0.6628,-0.6638,-0.6638,-0.664,-0.664,-0.668,-0.6643,-0.6643,-0.6643,-0.6643,0,-0.6719,-0.6726,-0.6706,-0.671,-0.6717,-0.6701,-0.6709,-0.6701,-0.6694,-0.6696,-0.668,-0.6681,-0.6664,-0.6664,-0.6654,-0.6658,-0.6658,-0.6652,-0.6649,-0.6652,-0.6653,-0.665,-0.6647,-0.6644,-0.6643,-0.6643,-0.6643,0,-0.6754,-0.6742,-0.6747,-0.6734,-0.6731,-0.6737,-0.6725,-0.6728,-0.6719,-0.6721,-0.672,-0.6706,-0.6705,-0.6691,-0.6688,-0.668,-0.6688,-0.6683,-0.669,-0.6688,-0.6698,-0.6696,-0.6736,-0.6739,-0.6702,-0.6702,-0.6703,0,-0.6774,-0.6779,-0.6766,-0.6766,-0.6761,-0.6761,-0.6759,-0.6745,-0.6743,-0.6735,-0.6738,-0.6736,-0.6733,-0.6732,-0.6721,-0.6717,-0.6711,-0.6725,-0.671,-0.6713,-0.6709,-0.6708,-0.6707,-0.6727,-0.6728,-0.6728,-0.6728,0,-0.6809,-0.6802,-0.68,-0.6796,-0.6795,-0.6791,-0.6786,-0.6787,-0.677,-0.677,-0.6768,-0.6766,-0.6761,-0.6759,-0.6753,-0.6747,-0.6735,-0.6733,-0.6735,-0.6738,-0.6741,-0.6738,-0.6697,-0.6732,-0.6732,-0.6731,-0.6731,-0.6731,-0.6836,-0.6839,-0.683,-0.6828,-0.6823,-0.6819,-0.682,-0.6811,-0.681,-0.6805,-0.6796,-0.6795,-0.6787,-0.6779,-0.6774,-0.6773,-0.6766,-0.6769,-0.6769,-0.677,-0.6771,-0.6743,-0.6772,-0.6772,-0.6772,-0.6772,-0.6772,0,-0.6868,-0.6862,-0.6861,-0.6854,-0.6852,-0.6841,-0.6835,-0.6835,-0.6834,-0.6828,-0.6825,-0.6823,-0.682,-0.6809,-0.6805,-0.6806,-0.68,-0.6805,-0.6804,-0.6803,-0.6779,-0.6777,-0.681,-0.681,-0.681,-0.681,-0.681,-0.681,-0.6885,-0.6889,-0.6881,-0.6882,-0.6876,-0.6875,-0.6872,-0.6868,-0.6863,-0.6861,-0.6858,-0.6851,-0.6843,-0.6838,-0.6834,-0.6831,-0.683,-0.6837,-0.6831,-0.6808,-0.6805,-0.6801,-0.6799,-0.6837,-0.6837,-0.6855,-0.6855,-0.6855]},{"header":{"parameterUnit":"m.s-1","parameterCategory":1,"la1":30.2991,"la2":30.254,"lo1":-89.0895,"lo2":-89.0444,"dy":0.0017,"dx":0.0017,"nx":28,"ny":28,"refTime":"2026-02-09T03:00:00:Z","depth":0,"parameterNumber":3,"parameterNumberName":"V-component_of_WINDS"},"data":[0,0,0,0,0,0,0,0,0,0,0,0,0,0,0,0,0,0,0,0,0,0,0,0,0,0,0,0,0,0,0,0,0,0,0,0,0,0,0,0,0,0,0,0,0,0,0,0,0,0,0,0,0,0,0,0,0,0,1.8275,1.8275,0,1.8291,1.8291,1.8291,1.8336,1.8337,1.8338,1.8339,1.835,1.8349,1.8349,0,0,0,0,0,0,0,0,0,0,0,0,0,1.8279,1.8279,1.8275,1.8275,1.8275,1.8291,1.8291,1.8291,1.8336,1.8337,1.8339,1.834,1.835,1.8349,1.8348,0,0,0,0,0,0,0,0,0,0,0,0,0,1.8284,1.8279,1.8275,1.83,1.8302,1.8291,1.8291,1.8291,1.8336,1.8337,1.8339,1.834,1.835,1.8349,1.8348,1.8312,0,0,1.8345,1.8345,0,0,0,0,0,0,0,0,1.8284,1.8284,1.8296,1.8298,1.8301,1.8313,1.8297,1.8298,1.8336,1.8323,1.8339,1.8341,1.8336,1.8336,1.8336,1.8313,1.8313,1.8345,1.8345,1.8344,1.8344,0,0,0,0,0,0,0,1.8284,1.8284,1.8281,1.8296,1.8299,1.8309,1.8311,1.8297,1.8321,1.8324,1.8328,1.8329,1.8338,1.8337,1.8336,1.8313,1.8345,1.8344,1.8344,1.8343,1.8264,1.8263,0,0,0,0,0,0,1.828,1.8283,1.8281,1.8282,1.8296,1.8308,1.831,1.8308,1.8321,1.8325,1.8328,1.8331,1.8338,1.8338,1.8337,1.8298,1.8344,1.8343,1.8343,1.8265,1.8264,1.8262,0,0,0,0,0,0,1.828,1.828,1.828,1.8283,1.8284,1.8306,1.8303,1.8307,1.8307,1.8324,1.8328,1.8323,1.8339,1.8338,1.8319,1.8299,1.8343,1.8342,1.8267,1.8265,1.8263,1.8217,0,0,0,0,0,0,1.828,1.8279,1.8267,1.8283,1.8284,1.8263,1.8301,1.8306,1.8305,1.831,1.832,1.8323,1.834,1.832,1.8318,1.8298,1.8341,1.8269,1.8266,1.8264,1.8221,1.8214,1.8208,0,0,0,0,0,1.828,1.8252,1.8266,1.8265,1.8269,1.8262,1.8262,1.8283,1.8303,1.8291,1.8302,1.8323,1.8301,1.8318,1.8316,1.8295,1.8271,1.8267,1.8264,1.8224,1.8215,1.8208,0,0,0,0,0,0,1.823,1.8254,1.827,1.8246,1.8252,1.8269,1.8254,1.8273,1.8272,1.8276,1.8301,1.8303,1.828,1.8285,1.8304,1.8262,1.8289,1.8285,1.826,1.8252,1.8245,1.8245,1.834,0,0,0,0,0,1.8217,1.821,1.8231,1.8208,1.821,1.8231,1.8229,1.8245,1.8251,1.8253,1.8263,1.8267,1.8261,1.8256,1.8252,1.8222,1.8225,1.8206,1.82,1.8194,1.8191,1.8177,1.8169,1.8251,1.8251,1.8251,0,0,1.8188,1.82,1.8194,1.8198,1.8204,1.8197,1.8233,1.8222,1.8217,1.8251,1.8235,1.8242,1.8248,1.8223,1.8213,1.8227,1.8169,1.819,1.8186,1.8185,1.8173,1.8165,1.8158,1.8248,1.8249,1.8249,0,0,1.8132,1.8141,1.8123,1.813,1.814,1.8155,1.815,1.8165,1.8173,1.8157,1.8183,1.8176,1.8165,1.8168,1.8169,1.8117,1.8136,1.8114,1.808,1.8066,1.806,1.8055,1.8037,1.8031,1.811,1.811,1.811,0,1.8095,1.8086,1.8111,1.81,1.8102,1.8135,1.8117,1.8121,1.8128,1.8128,1.8144,1.8133,1.8138,1.8117,1.8104,1.8103,1.8099,1.8113,1.8059,1.8054,1.8049,1.8033,1.8026,1.8108,1.8108,1.8108,1.8108,0,1.804,1.8033,1.8018,1.8027,1.8026,1.8011,1.8034,1.803,1.8047,1.8059,1.8044,1.8052,1.8051,1.8047,1.8061,1.8027,1.8036,1.8055,1.8083,1.8038,1.8024,1.8018,1.8104,1.8105,1.8106,1.8106,0,0,1.7952,1.7978,1.7972,1.7977,1.7992,1.7986,1.7973,1.7975,1.7971,1.7975,1.7965,1.7956,1.7975,1.7975,1.7991,1.7978,1.7939,1.7999,1.8,1.7989,1.7903,1.7889,1.7882,1.7952,1.7951,1.795,1.7903,0,1.7901,1.7883,1.7906,1.7882,1.7877,1.7909,1.7898,1.7905,1.7917,1.7913,1.7925,1.7919,1.7944,1.7944,1.7934,1.7946,1.7922,1.7949,1.7942,1.7942,1.7941,1.7874,1.7859,1.7815,1.7897,1.7896,1.7896,0,1.7839,1.7843,1.7819,1.7837,1.7836,1.7826,1.783,1.7826,1.7834,1.7844,1.7846,1.7866,1.7854,1.7881,1.7865,1.7883,1.7881,1.7887,1.7886,1.7886,1.7917,1.7874,1.7801,1.7795,1.7887,1.7887,1.7888,0,1.7779,1.7778,1.7765,1.7768,1.7788,1.7781,1.7788,1.7799,1.7799,1.7802,1.7802,1.7802,1.7802,1.7802,1.7821,1.7839,1.7803,1.7831,1.7811,1.781,1.7802,1.7802,1.7729,1.7799,1.7799,1.7799,1.7799,0,1.772,1.7704,1.7739,1.773,1.7714,1.7741,1.7723,1.7734,1.7744,1.7737,1.7764,1.7757,1.7783,1.7779,1.7793,1.7779,1.7778,1.7785,1.7789,1.7783,1.7783,1.7783,1.7787,1.7797,1.7798,1.7798,1.7798,0,1.7651,1.7673,1.7661,1.7682,1.7687,1.7674,1.7692,1.7684,1.7699,1.7691,1.769,1.7712,1.7708,1.7728,1.7727,1.7737,1.7715,1.7724,1.7713,1.7716,1.7695,1.7697,1.762,1.7612,1.7686,1.7685,1.7684,0,1.7612,1.7602,1.7623,1.7622,1.7629,1.7626,1.7627,1.7653,1.7653,1.7663,1.7654,1.7654,1.7655,1.7648,1.7663,1.7663,1.7672,1.7645,1.7672,1.7667,1.7674,1.7675,1.7674,1.764,1.7639,1.7638,1.7637,0,1.7542,1.7554,1.7556,1.7561,1.7562,1.7567,1.7574,1.7571,1.7599,1.7597,1.7595,1.7596,1.7597,1.7596,1.76,1.7606,1.7627,1.7629,1.7624,1.7619,1.7614,1.7618,1.7699,1.7631,1.7631,1.7632,1.7632,1.7632,1.7488,1.7481,1.7495,1.7496,1.7505,1.7511,1.7506,1.7521,1.752,1.7525,1.754,1.7536,1.7546,1.7553,1.7558,1.7554,1.7567,1.756,1.7559,1.7557,1.7554,1.7613,1.7555,1.7555,1.7555,1.7555,1.7556,0,1.742,1.7432,1.7433,1.7443,1.7444,1.7465,1.7473,1.7472,1.7469,1.7478,1.748,1.7478,1.7478,1.7494,1.7495,1.749,1.7499,1.7489,1.749,1.7492,1.7541,1.7546,1.7482,1.7482,1.7482,1.7482,1.7482,1.7482,1.7385,1.7375,1.7389,1.7384,1.7395,1.7393,1.7397,1.7402,1.741,1.7408,1.7409,1.742,1.7432,1.7435,1.7436,1.744,1.744,1.7427,1.7435,1.7481,1.7488,1.7495,1.75,1.7427,1.7427,1.7386,1.7386,1.7386]}]]